• In Hungary
  • List of Countries
  • For 7 days
  • Water Temperature
  • Satellite Maps
  • Weather Map
  • News
  • Weather Widgets
  • user-avatar
    Login

    Hourly Weather Popovka

    Today, 14 November, Wednesday

    Time Temperature Precipitation Wind Pressure Humidity
    00:00 -8°C° 0 mm 4 mps 765 mmHg 28%
    01:00 -8°C° 0 mm 4 mps 765 mmHg 29%
    02:00 -9°C° 0 mm 4 mps 764 mmHg 30%
    03:00 -9°C° 0 mm 4 mps 764 mmHg 35%
    04:00 -9°C° 0 mm 4 mps 764 mmHg 36%
    05:00 -9°C° 0 mm 4 mps 763 mmHg 37%
    06:00 -9°C° 0 mm 4 mps 763 mmHg 39%
    07:00 -10°C° 0 mm 5 mps 762 mmHg 39%
    08:00 -10°C° 0 mm 5 mps 762 mmHg 39%
    09:00 -10°C° 0 mm 5 mps 762 mmHg 39%
    10:00 -8°C° 0 mm 5 mps 762 mmHg 38%
    11:00 -7°C° 0 mm 5 mps 762 mmHg 36%
    12:00 -6°C° 0 mm 5 mps 761 mmHg 34%
    13:00 -5°C° 0 mm 5 mps 761 mmHg 35%
    14:00 -5°C° 0 mm 5 mps 761 mmHg 35%
    15:00 -2°C° 0 mm 3 mps 760 mmHg 35%
    16:00 -4°C° 0 mm 4 mps 760 mmHg 37%
    17:00 -4°C° 0 mm 4 mps 760 mmHg 39%
    18:00 -5°C° 0 mm 4 mps 760 mmHg 41%
    19:00 -5°C° 0 mm 4 mps 760 mmHg 43%
    20:00 -5°C° 0 mm 4 mps 760 mmHg 46%
    21:00 -5°C° 0 mm 4 mps 760 mmHg 48%
    22:00 -5°C° 0 mm 4 mps 760 mmHg 49%
    23:00 -5°C° 0 mm 4 mps 760 mmHg 50%

    Tomorrow, 15 November, Thursday

    Time Temperature Precipitation Wind Pressure Humidity
    00:00 -5°C° 0 mm 4 mps 760 mmHg 51%
    01:00 -7°C° 0 mm 4 mps 761 mmHg 50%
    02:00 -6°C° 0 mm 3 mps 761 mmHg 49%
    03:00 -6°C° 0 mm 3 mps 761 mmHg 47%
    04:00 -6°C° 0 mm 3 mps 761 mmHg 45%
    05:00 -6°C° 0 mm 3 mps 761 mmHg 42%
    06:00 -7°C° 0 mm 3 mps 761 mmHg 40%
    07:00 -6°C° 0 mm 3 mps 762 mmHg 38%
    08:00 -6°C° 0 mm 3 mps 762 mmHg 36%
    09:00 -6°C° 0 mm 3 mps 763 mmHg 33%
    10:00 -5°C° 0 mm 3 mps 763 mmHg 32%
    11:00 -4°C° 0 mm 3 mps 763 mmHg 30%
    12:00 -2°C° 0 mm 3 mps 763 mmHg 29%
    13:00 -2°C° 0 mm 3 mps 763 mmHg 29%
    14:00 -2°C° 0 mm 3 mps 763 mmHg 29%
    15:00 -2°C° 0 mm 2 mps 763 mmHg 29%
    16:00 -2°C° 0 mm 2 mps 764 mmHg 30%
    17:00 -3°C° 0 mm 2 mps 764 mmHg 31%
    18:00 -4°C° 0 mm 2 mps 764 mmHg 31%
    19:00 -4°C° 0 mm 2 mps 765 mmHg 31%
    20:00 -4°C° 0 mm 2 mps 765 mmHg 30%
    21:00 -4°C° 0 mm 2 mps 765 mmHg 30%
    22:00 -4°C° 0 mm 2 mps 765 mmHg 30%
    23:00 -5°C° 0 mm 2 mps 766 mmHg 30%

    Day after tomorrow, 16 November, Friday

    Time Temperature Precipitation Wind Pressure Humidity
    00:00 -5°C° 0 mm 2 mps 766 mmHg 30%
    01:00 -5°C° 0 mm 2 mps 766 mmHg 30%
    02:00 -5°C° 0 mm 2 mps 766 mmHg 30%
    03:00 -5°C° 0 mm 2 mps 767 mmHg 30%
    04:00 -5°C° 0 mm 2 mps 767 mmHg 29%
    05:00 -5°C° 0 mm 2 mps 767 mmHg 29%
    06:00 -6°C° 0 mm 2 mps 767 mmHg 29%
    07:00 -5°C° 0 mm 2 mps 767 mmHg 28%
    08:00 -5°C° 0 mm 2 mps 767 mmHg 27%
    09:00 -5°C° 0 mm 2 mps 768 mmHg 26%
    10:00 -4°C° 0 mm 2 mps 768 mmHg 23%
    11:00 -3°C° 0 mm 2 mps 768 mmHg 21%
    12:00 -2°C° 0 mm 2 mps 768 mmHg 19%
    13:00 -1°C° 0 mm 2 mps 768 mmHg 19%
    14:00 -1°C° 0 mm 2 mps 768 mmHg 20%
    15:00 -1°C° 0 mm 2 mps 768 mmHg 20%
    16:00 -2°C° 0 mm 2 mps 768 mmHg 21%
    17:00 -3°C° 0 mm 2 mps 767 mmHg 22%
    18:00 -3°C° 0 mm 2 mps 767 mmHg 22%
    19:00 -4°C° 0 mm 2 mps 767 mmHg 22%
    20:00 -4°C° 0 mm 2 mps 767 mmHg 22%
    21:00 -4°C° 0 mm 2 mps 767 mmHg 21%
    22:00 -4°C° 0 mm 2 mps 767 mmHg 21%
    23:00 -4°C° 0 mm 2 mps 767 mmHg 21%

    17 November, Saturday

    Time Temperature Precipitation Wind Pressure Humidity
    00:00 -2°C° 0 mm 1 mps 767 mmHg 21%
    01:00 -2°C° 0 mm 1 mps 767 mmHg 21%
    02:00 -2°C° 0 mm 1 mps 767 mmHg 20%
    03:00 -2°C° 0 mm 1 mps 767 mmHg 20%
    04:00 -3°C° 0 mm 1 mps 767 mmHg 20%
    05:00 -3°C° 0 mm 1 mps 766 mmHg 20%
    06:00 -3°C° 0 mm 1 mps 766 mmHg 20%
    07:00 -3°C° 0 mm 1 mps 766 mmHg 20%
    08:00 -2°C° 0 mm 1 mps 766 mmHg 19%
    09:00 -2°C° 0 mm 1 mps 766 mmHg 19%
    10:00 -1°C° 0 mm 1 mps 765 mmHg 18%
    11:00 0°C° 0 mm 1 mps 765 mmHg 17%
    12:00 +1°C° 0 mm 1 mps 764 mmHg 15%
    13:00 +1°C° 0 mm 1 mps 764 mmHg 16%
    14:00 +1°C° 0 mm 1 mps 763 mmHg 17%
    15:00 +1°C° 0 mm 1 mps 762 mmHg 18%
    16:00 0°C° 0 mm 1 mps 762 mmHg 19%
    17:00 -2°C° 0 mm 2 mps 761 mmHg 19%
    18:00 -3°C° 0 mm 2 mps 760 mmHg 20%
    19:00 -3°C° 0 mm 2 mps 760 mmHg 20%
    20:00 -3°C° 0 mm 2 mps 759 mmHg 20%
    21:00 -3°C° 0 mm 2 mps 758 mmHg 19%
    22:00 -5°C° 0 mm 3 mps 758 mmHg 20%
    23:00 -5°C° 0 mm 3 mps 757 mmHg 20%

    18 November, Sunday

    Time Temperature Precipitation Wind Pressure Humidity
    00:00 -5°C° 0 mm 3 mps 756 mmHg 20%
    01:00 -5°C° 0 mm 3 mps 756 mmHg 20%
    02:00 -5°C° 0 mm 3 mps 755 mmHg 21%
    03:00 -5°C° 0 mm 3 mps 754 mmHg 21%
    04:00 -5°C° 0 mm 3 mps 754 mmHg 25%
    05:00 -5°C° 0 mm 3 mps 753 mmHg 28%
    06:00 -5°C° 0 mm 3 mps 752 mmHg 32%
    07:00 -5°C° 0.2 mm 3 mps 752 mmHg 39%
    08:00 -5°C° 0.2 mm 3 mps 751 mmHg 46%
    09:00 -5°C° 0.2 mm 3 mps 751 mmHg 53%
    10:00 -5°C° 0.1 mm 3 mps 750 mmHg 55%
    11:00 -4°C° 0.1 mm 3 mps 750 mmHg 58%
    12:00 -4°C° 0.1 mm 3 mps 750 mmHg 61%
    13:00 -3°C° 0.1 mm 2 mps 750 mmHg 61%
    14:00 -3°C° 0.1 mm 2 mps 750 mmHg 61%
    15:00 -3°C° 0.1 mm 2 mps 749 mmHg 62%
    16:00 -3°C° 0.1 mm 2 mps 749 mmHg 61%
    17:00 -3°C° 0.1 mm 2 mps 749 mmHg 61%
    18:00 -3°C° 0.1 mm 2 mps 749 mmHg 60%
    19:00 -4°C° 0.1 mm 2 mps 749 mmHg 58%
    20:00 -4°C° 0.1 mm 2 mps 749 mmHg 56%
    21:00 -4°C° 0.1 mm 2 mps 749 mmHg 54%
    22:00 -4°C° 0 mm 2 mps 750 mmHg 52%
    23:00 -4°C° 0 mm 2 mps 750 mmHg 50%

    19 November, Monday

    Time Temperature Precipitation Wind Pressure Humidity
    00:00 -4°C° 0 mm 2 mps 750 mmHg 48%
    01:00 -4°C° 0 mm 2 mps 750 mmHg 50%
    02:00 -5°C° 0 mm 2 mps 751 mmHg 52%
    03:00 -5°C° 0 mm 2 mps 751 mmHg 54%
    04:00 -5°C° 0 mm 2 mps 751 mmHg 61%
    05:00 -5°C° 0 mm 2 mps 751 mmHg 67%
    06:00 -5°C° 0 mm 2 mps 752 mmHg 74%
    07:00 -6°C° 0 mm 3 mps 752 mmHg 78%
    08:00 -6°C° 0 mm 3 mps 753 mmHg 83%
    09:00 -5°C° 0 mm 3 mps 753 mmHg 87%
    10:00 -5°C° 0 mm 3 mps 753 mmHg 82%
    11:00 -4°C° 0 mm 3 mps 754 mmHg 78%
    12:00 -2°C° 0 mm 3 mps 754 mmHg 74%
    13:00 -2°C° 0.1 mm 3 mps 754 mmHg 73%
    14:00 -2°C° 0.1 mm 3 mps 754 mmHg 73%
    15:00 -2°C° 0.1 mm 3 mps 754 mmHg 72%
    16:00 -2°C° 0.1 mm 3 mps 755 mmHg 73%
    17:00 -4°C° 0.1 mm 3 mps 755 mmHg 74%
    18:00 -4°C° 0.1 mm 3 mps 755 mmHg 75%
    19:00 -4°C° 0 mm 3 mps 755 mmHg 78%
    20:00 -4°C° 0 mm 3 mps 755 mmHg 82%
    21:00 -4°C° 0 mm 3 mps 755 mmHg 86%
    22:00 -4°C° 0.1 mm 3 mps 756 mmHg 87%
    23:00 -4°C° 0.1 mm 3 mps 756 mmHg 88%
    Show more